Wind_Speed
8 9 11 12 13 14 15 16 18 20 23 25 28 31 33 35 37 39 41 43 45 45 45 46 46 47 47 48 48 49 49 49 49 49 50 50 51 51 50 50 50 50 50 51
9 11 13 13 14 15 17 18 19 21 24 26 29 32 34 37 38 40 42 44 45 46 46 46 47 47 47 47 48 49 49 50 50 50 50 50 50 49 49 48 47 47 47 48
11 13 14 14 15 16 18 19 21 23 25 28 30 33 36 38 40 42 44 45 46 46 46 46 47 48 47 47 49 49 50 50 51 50 49 48 47 46 46 45 45 45 45 46
12 14 14 15 16 17 18 20 22 24 27 29 32 35 38 40 41 43 45 46 47 47 47 47 48 47 47 48 50 50 50 50 49 48 46 45 43 42 40 40 40 40 41 42
14 15 16 16 17 18 18 19 22 25 28 30 33 35 39 41 43 45 47 47 48 48 48 48 48 47 48 49 50 50 50 49 48 46 44 43 40 38 36 35 35 36 36 38
16 17 17 18 18 19 21 21 23 26 29 32 35 37 39 42 44 46 47 48 48 48 48 48 48 48 48 49 50 50 49 48 46 45 43 40 37 34 32 30 30 31 31 33
17 18 19 19 20 21 23 25 26 28 31 34 37 39 42 43 45 47 48 48 48 48 47 48 48 48 48 49 50 49 48 47 45 43 40 37 33 31 29 26 25 25 25 27
17 18 20 20 21 22 23 25 27 29 32 35 37 40 42 45 46 48 48 49 49 47 47 48 48 48 48 49 48 47 47 45 43 41 38 34 31 28 25 22 20 18 19 21
18 19 20 21 22 23 24 26 28 30 33 36 38 40 43 45 47 48 49 49 48 47 46 47 48 47 47 48 47 46 45 43 41 39 36 32 29 25 22 18 15 14 15 16
19 20 21 22 23 24 25 27 28 31 33 36 39 42 44 46 48 48 49 49 48 47 46 47 47 46 46 46 46 45 43 41 39 37 34 30 26 23 19 15 12 11 10 12
20 21 22 22 23 24 26 27 29 31 34 37 40 43 45 47 48 49 49 49 48 46 46 46 45 45 45 44 44 43 42 40 39 36 33 29 25 22 18 14 10 7 6 9
21 22 22 23 24 25 26 28 30 32 35 38 41 43 46 48 49 49 49 49 47 46 45 45 44 43 43 42 42 42 40 39 38 36 33 29 25 21 18 14 10 5 2 6
22 22 22 23 24 25 27 29 31 33 37 40 42 44 46 48 49 49 49 48 47 45 44 43 43 42 41 41 41 40 40 39 37 36 32 29 26 22 18 15 10 5 1 2
22 22 23 24 25 26 28 30 32 35 38 40 43 45 47 48 49 49 48 47 46 44 42 42 41 40 40 40 39 38 38 37 36 34 33 30 26 23 19 15 12 7 3 1
22 23 23 24 26 27 29 31 34 36 39 41 43 45 47 47 48 49 47 46 45 43 41 40 40 39 38 38 37 36 36 36 35 34 32 29 26 23 20 16 14 10 6 3
23 24 25 26 27 29 31 33 35 37 39 41 43 45 47 47 48 48 47 46 44 41 39 38 38 37 36 36 36 35 34 33 33 32 31 29 26 23 20 17 15 12 9 6
25 26 27 28 29 31 33 34 36 38 40 41 43 45 46 47 47 47 46 45 43 41 39 36 36 35 35 34 34 33 32 32 32 31 30 28 26 24 21 19 16 13 11 8
28 29 30 30 31 33 34 36 37 38 40 41 42 44 45 46 46 46 44 42 41 40 38 35 34 33 33 32 32 31 30 30 30 29 29 27 25 23 22 20 18 16 13 12
31 31 32 33 34 35 36 37 38 39 40 41 42 43 45 45 45 44 43 41 39 38 36 33 32 31 30 29 29 29 28 28 28 28 27 26 24 22 22 21 20 18 17 15
33 34 34 35 35 36 37 38 39 39 40 41 42 42 43 44 44 43 41 40 38 37 34 32 30 28 27 27 26 26 26 25 26 26 25 24 22 21 20 20 20 20 19 18
36 36 37 37 37 37 38 38 38 39 39 40 41 41 42 43 42 41 39 38 37 36 33 31 28 26 25 24 23 23 23 23 23 24 24 23 21 20 20 19 19 19 19 20
37 38 38 38 38 38 38 38 38 38 39 39 40 40 41 41 41 40 38 37 36 34 32 30 27 25 22 21 20 20 20 21 21 21 21 21 20 20 19 19 19 19 19 18
39 39 39 39 39 39 38 38 38 39 39 38 39 39 39 39 39 38 37 36 34 33 31 28 26 23 20 19 18 17 17 18 18 17 18 18 18 18 18 19 19 19 18 18
41 40 40 40 39 38 38 38 39 38 38 37 38 38 38 38 37 36 35 34 33 31 29 27 25 22 18 16 15 15 14 14 15 15 14 15 15 16 17 17 18 19 19 19
42 42 41 41 39 39 39 39 38 37 37 37 37 37 37 37 36 35 34 32 31 30 28 26 24 20 17 15 13 12 12 11 11 12 12 12 13 13 14 15 16 17 17 18
43 42 41 40 40 39 39 38 38 37 37 37 37 36 35 35 34 33 32 31 29 28 27 25 23 20 16 13 12 10 9 8 8 8 9 9 10 11 12 12 14 15 15 16
46 44 43 42 41 40 39 39 39 38 38 36 36 35 35 34 32 31 30 30 29 27 26 24 22 19 16 13 11 9 7 6 5 5 5 6 7 8 8 9 11 12 13 14
Wind_Direction
315 318 321 324 327 327 327 326 326 326 327 327 327 327 327 328 328 328 327 326 326 325 324 322 321 320 318 317 315 313 311 309 305 302 298 295 291 287 283 278 272 267 263 260
324 324 324 325 327 327 326 326 328 329 329 330 330 329 330 331 331 330 330 329 328 327 326 324 323 322 320 319 318 316 314 312 309 305 302 298 294 289 284 278 273 267 263 260
325 325 324 325 327 327 326 326 329 331 331 333 333 332 333 334 333 332 332 332 331 329 328 327 326 325 323 322 321 320 318 316 313 310 306 303 298 293 287 280 273 268 263 259
323 324 325 324 326 326 327 327 329 331 333 334 335 335 335 335 334 335 334 333 333 332 331 330 329 328 327 326 325 323 321 320 317 315 311 307 302 297 290 283 276 270 264 258
322 324 323 324 326 327 329 329 330 332 334 335 337 337 337 337 337 337 336 335 335 334 333 333 332 332 330 330 329 327 325 324 322 319 316 312 307 302 294 286 278 271 263 256
320 321 321 324 327 328 329 330 332 334 336 337 338 339 339 339 338 338 337 337 337 336 335 335 335 334 333 333 332 331 329 328 326 324 321 317 312 307 300 290 280 271 262 254
315 317 317 322 326 328 329 331 334 335 337 338 339 340 340 339 339 339 339 339 338 338 337 337 337 336 336 336 335 335 334 332 330 328 326 323 318 313 306 296 285 274 262 252
311 313 314 320 323 326 327 330 332 334 336 338 339 339 339 340 340 340 340 340 340 339 339 339 340 340 340 339 339 339 338 337 335 334 331 329 325 321 313 301 291 276 262 250
309 309 312 317 320 323 326 329 332 333 335 337 338 338 339 340 341 341 341 341 341 341 341 342 342 342 343 343 343 343 343 342 341 341 340 337 335 331 323 312 298 277 262 247
306 308 311 315 318 321 325 328 330 332 334 336 337 338 339 340 341 342 342 342 342 343 343 344 344 344 345 347 347 348 348 348 348 347 347 345 343 341 338 328 312 290 263 242
306 308 310 313 316 319 323 326 329 331 333 335 336 337 339 340 341 342 343 343 343 344 344 345 346 347 348 350 351 352 353 353 353 353 353 353 352 350 348 343 330 304 252 225
306 307 309 312 315 319 322 325 328 330 332 334 335 337 338 340 341 343 343 344 344 345 346 347 348 349 351 352 354 355 357 358 359 359 360 1 1 1 1 359 354 342 251 216
304 305 308 311 314 317 321 324 326 328 330 332 334 336 338 340 341 343 344 344 345 346 347 349 350 351 353 354 356 358 359 1 3 4 6 8 9 8 9 10 13 22 40 199
303 305 308 311 313 317 320 323 325 327 329 331 334 336 338 340 341 342 344 344 345 346 348 349 351 352 354 356 357 359 1 3 5 8 10 11 13 15 17 20 21 25 33 124
303 306 308 311 314 316 319 321 323 325 327 330 332 335 337 339 341 342 343 344 345 347 347 349 351 353 355 356 358 0 3 5 7 9 11 14 16 19 22 25 26 30 42 70
304 306 308 310 312 315 317 319 321 324 326 328 331 334 336 338 340 341 343 344 345 346 347 348 351 353 355 357 359 1 4 6 9 11 13 16 19 22 26 29 33 40 48 61
303 304 305 307 310 312 315 317 320 322 324 327 329 332 335 337 339 341 342 343 344 346 347 348 351 353 356 358 359 2 5 8 10 12 16 20 23 28 32 34 37 42 49 59
299 301 303 305 307 309 312 315 317 320 322 324 327 330 333 336 338 340 342 343 343 345 347 348 350 353 355 358 0 3 6 10 13 16 19 23 27 32 36 39 44 49 54 59
296 298 300 302 304 306 308 311 315 317 320 322 325 328 331 334 337 339 341 342 343 344 346 347 349 351 354 358 1 4 8 11 15 18 22 27 32 37 41 44 48 52 58 63
292 293 295 298 300 303 306 309 312 314 317 320 323 326 330 333 336 338 340 341 342 343 345 347 348 350 353 357 1 5 9 12 16 20 25 29 34 40 44 48 51 56 61 67
287 289 291 294 297 300 303 306 309 312 314 318 320 324 327 331 334 337 339 340 341 342 343 345 347 348 350 354 360 4 9 13 17 22 29 34 40 45 50 53 57 61 67 71
285 287 289 291 294 296 300 304 307 310 312 315 318 321 325 329 332 335 337 338 339 340 341 342 344 345 347 351 357 3 8 13 17 23 30 37 44 48 52 56 61 65 69 74
282 285 286 289 291 294 297 300 303 306 309 312 315 318 323 327 330 332 334 336 337 338 339 339 341 343 344 347 354 0 6 12 18 24 30 39 47 51 55 60 65 68 71 75
280 282 283 286 288 290 293 296 298 301 305 309 312 316 320 323 326 329 332 333 334 335 336 336 338 339 339 342 349 355 2 8 17 25 33 42 51 57 61 64 68 71 75 78
278 279 280 282 284 286 288 291 294 297 301 306 309 312 316 319 323 326 329 331 331 333 333 334 335 335 334 335 341 348 357 5 15 26 37 46 53 60 67 70 71 74 78 82
275 276 277 278 280 282 284 286 289 294 299 302 305 307 311 316 319 323 326 328 328 330 331 331 331 330 328 327 331 339 349 0 13 27 39 49 56 62 69 75 77 81 86 89
274 274 275 276 277 279 281 283 286 291 296 299 301 303 307 311 315 319 322 324 325 326 327 327 327 326 322 317 318 322 329 339 356 16 34 48 58 67 75 83 88 91 94 96
Height
5846 5844 5842 5840 5838 5836 5833 5831 5828 5824 5819 5815 5809 5803 5797 5791 5784 5777 5769 5761 5752 5743 5735 5726 5717 5709 5700 5691 5682 5673 5664 5656 5648 5640 5633 5626 5620 5615 5611 5608 5606 5606 5606 5607
5844 5842 5840 5838 5835 5833 5830 5827 5823 5820 5815 5810 5804 5798 5791 5785 5777 5770 5761 5752 5743 5734 5725 5716 5707 5698 5688 5679 5669 5659 5650 5641 5632 5624 5616 5608 5601 5596 5591 5588 5586 5586 5587 5588
5842 5840 5837 5835 5833 5830 5826 5823 5819 5815 5811 5805 5799 5792 5785 5778 5770 5762 5753 5744 5734 5725 5716 5706 5696 5686 5676 5666 5656 5646 5636 5626 5616 5607 5599 5591 5583 5577 5572 5569 5567 5567 5567 5569
5840 5838 5835 5835 5830 5826 5823 5819 5815 5810 5805 5800 5794 5786 5779 5771 5763 5754 5745 5736 5726 5716 5706 5696 5686 5675 5665 5655 5644 5633 5622 5611 5601 5591 5583 5574 5567 5561 5555 5551 5549 5549 5549 5551
5837 5835 5832 5830 5826 5822 5819 5816 5811 5806 5801 5795 5789 5781 5773 5764 5756 5747 5737 5727 5717 5707 5697 5686 5676 5666 5655 5644 5633 5621 5610 5599 5588 5578 5569 5560 5552 5545 5540 5536 5534 5533 5533 5535
5834 5831 5829 5827 5822 5818 5816 5811 5807 5801 5795 5789 5783 5776 5769 5759 5750 5741 5731 5720 5710 5699 5688 5678 5668 5657 5645 5634 5623 5611 5599 5588 5577 5567 5557 5547 5539 5533 5527 5523 5520 5519 5519 5521
5830 5827 5825 5822 5818 5814 5811 5807 5801 5795 5790 5783 5776 5769 5762 5753 5744 5734 5724 5713 5703 5692 5681 5671 5660 5649 5637 5626 5614 5602 5590 5578 5567 5557 5547 5538 5530 5523 5517 5513 5510 5508 5509 5510
5827 5824 5822 5817 5813 5810 5807 5801 5796 5790 5785 5778 5771 5764 5756 5747 5737 5727 5718 5707 5696 5686 5675 5664 5653 5642 5630 5618 5606 5594 5583 5571 5560 5549 5538 5530 5522 5515 5510 5505 5502 5501 5501 5502
5823 5821 5816 5812 5809 5805 5801 5796 5791 5786 5780 5773 5766 5759 5751 5742 5732 5722 5711 5701 5690 5679 5669 5658 5647 5635 5624 5613 5601 5589 5577 5565 5554 5543 5533 5525 5517 5510 5504 5500 5497 5496 5496 5497
5817 5814 5811 5807 5803 5800 5795 5791 5786 5781 5775 5768 5761 5753 5745 5736 5726 5716 5706 5695 5685 5674 5663 5653 5642 5630 5619 5608 5596 5585 5573 5562 5551 5540 5531 5522 5514 5507 5501 5497 5494 5492 5492 5493
5812 5809 5806 5802 5799 5795 5790 5786 5781 5775 5770 5763 5756 5748 5739 5730 5721 5711 5701 5690 5679 5669 5659 5648 5637 5626 5616 5605 5594 5582 5571 5560 5549 5539 5529 5521 5513 5506 5501 5496 5493 5491 5490 5491
5807 5804 5801 5797 5793 5789 5785 5781 5776 5770 5764 5758 5750 5743 5734 5725 5715 5705 5695 5685 5675 5664 5654 5644 5634 5623 5613 5602 5592 5581 5570 5560 5549 5539 5529 5521 5514 5507 5501 5497 5493 5491 5491 5492
5801 5798 5795 5792 5788 5784 5780 5775 5770 5765 5759 5752 5745 5737 5728 5719 5710 5700 5691 5680 5671 5661 5651 5641 5631 5621 5611 5601 5591 5581 5570 5560 5550 5540 5531 5523 5515 5509 5504 5499 5496 5494 5493 5493
5795 5792 5789 5786 5782 5778 5774 5769 5764 5759 5753 5747 5739 5731 5723 5714 5705 5696 5686 5677 5667 5657 5648 5638 5629 5619 5610 5600 5591 5581 5571 5561 5552 5543 5534 5526 5518 5512 5507 5502 5499 5496 5495 5494
5788 5786 5783 5779 5776 5772 5768 5763 5759 5753 5747 5741 5734 5726 5718 5709 5701 5692 5682 5673 5663 5654 5645 5636 5627 5618 5609 5600 5591 5582 5573 5563 5554 5546 5537 5529 5522 5516 5511 5506 5502 5500 5498 5497
5782 5779 5776 5773 5770 5766 5762 5757 5753 5747 5741 5735 5728 5721 5713 5705 5696 5687 5678 5669 5660 5651 5643 5634 5626 5617 5609 5600 5591 5583 5574 5566 5557 5549 5541 5533 5526 5520 5515 5510 5507 5504 5501 5500
5775 5772 5769 5766 5763 5759 5755 5751 5746 5741 5735 5729 5722 5715 5708 5700 5692 5683 5674 5665 5657 5648 5640 5632 5624 5616 5608 5600 5592 5584 5577 5569 5560 5552 5545 5537 5531 5525 5520 5515 5511 5508 5506 5504
5768 5765 5762 5759 5756 5752 5748 5744 5739 5734 5729 5723 5716 5710 5703 5695 5688 5680 5671 5663 5654 5646 5638 5630 5623 5616 5608 5601 5593 5586 5579 5572 5564 5556 5549 5542 5536 5531 5525 5520 5516 5513 5510 5508
5760 5757 5755 5752 5748 5745 5741 5737 5732 5727 5722 5716 5710 5704 5697 5690 5683 5675 5667 5660 5652 5644 5636 5629 5622 5615 5609 5602 5595 5588 5581 5574 5567 5560 5554 5547 5542 5537 5532 5527 5523 5519 5516 5514
5751 5749 5746 5743 5740 5737 5733 5729 5725 5720 5715 5710 5704 5698 5691 5685 5678 5671 5663 5656 5649 5641 5634 5628 5621 5615 5609 5603 5596 5590 5584 5578 5571 5565 5558 5552 5547 5542 5538 5534 5530 5527 5523 5521
5742 5739 5737 5734 5731 5728 5725 5721 5717 5712 5708 5703 5697 5691 5686 5679 5673 5666 5659 5652 5645 5638 5632 5626 5620 5614 5608 5603 5598 5592 5586 5581 5575 5569 5564 5558 5553 5548 5544 5541 5538 5534 5532 5529
5731 5729 5727 5724 5722 5719 5716 5712 5708 5704 5700 5695 5690 5685 5680 5674 5668 5661 5655 5649 5642 5636 5629 5624 5618 5613 5608 5603 5598 5594 5589 5584 5579 5574 5569 5564 5559 5555 5551 5548 5544 5542 5540 5537
5720 5718 5716 5713 5711 5709 5706 5703 5700 5696 5692 5688 5683 5678 5673 5668 5663 5657 5651 5645 5639 5633 5627 5621 5616 5611 5607 5603 5599 5595 5590 5586 5582 5577 5573 5569 5565 5561 5558 5554 5551 5549 5547 5545
5707 5706 5704 5702 5700 5698 5696 5693 5690 5687 5683 5680 5676 5671 5667 5662 5657 5651 5646 5640 5635 5629 5624 5619 5614 5610 5606 5602 5599 5595 5591 5588 5584 5581 5577 5573 5570 5567 5564 5561 5559 5556 5554 5553
5694 5693 5691 5690 5689 5687 5685 5683 5680 5677 5674 5671 5668 5664 5660 5656 5651 5646 5641 5636 5631 5626 5621 5616 5612 5608 5604 5601 5598 5595 5592 5589 5586 5583 5580 5577 5574 5572 5569 5567 5565 5564 5562 5560
5679 5679 5678 5678 5677 5675 5673 5672 5670 5667 5665 5662 5659 5656 5652 5649 5645 5640 5636 5631 5626 5622 5617 5613 5608 5605 5602 5599 5597 5594 5592 5590 5588 5585 5583 5581 5578 5576 5574 5573 5571 5570 5568 5568
5663 5664 5664 5664 5664 5663 5662 5660 5658 5656 5655 5653 5651 5647 5644 5641 5638 5634 5630 5626 5622 5617 5613 5609 5605 5602 5599 5596 5595 5593 5591 5590 5588 5586 5585 5583 5582 5580 5579 5577 5576 5575 5574 5574